DW9372 Weather Reports


time (UTC)temp
C
wind
direction
speed
KPH
gust
KPH
rain 1hr
cm
rain 24hr
cm
rain mn
cm
humidity
%
barometer
mb
20260508035549 2 244 0.0 0.0 0.00 0.00 0.00 93 1013.4
20260508035047 2 244 0.0 0.0 0.00 0.00 0.00 93 1013.3
20260508034543 2 243 0.0 0.0 0.00 0.00 0.00 93 1013.4
20260508034041 2 243 0.0 0.0 0.00 0.00 0.00 92 1013.2
20260508033538 2 243 0.0 0.0 0.00 0.00 0.00 92 1013.3
20260508033037 1 244 0.0 0.0 0.00 0.00 0.00 92 1013.2
20260508032532 2 243 0.0 0.0 0.00 0.00 0.00 91 1013.3
20260508032031 2 244 0.0 0.0 0.00 0.00 0.00 91 1013.3
20260508031527 2 243 0.0 0.0 0.00 0.00 0.00 89 1013.3
20260508031022 2 244 0.0 0.0 0.00 0.00 0.00 89 1013.2
20260508030520 2 243 0.0 0.0 0.00 0.00 0.00 89 1013.4
20260508030018 2 243 0.0 0.0 0.00 0.00 0.00 88 1013.2
20260508025513 2 244 0.0 0.0 0.00 0.00 0.00 88 1013.5
20260508025011 2 243 0.0 0.0 0.00 0.00 0.00 88 1013.4
20260508024507 2 244 0.0 0.0 0.00 0.00 0.00 87 1013.5
20260508024004 2 244 0.0 0.0 0.00 0.00 0.00 87 1013.2
20260508023500 2 244 0.0 0.0 0.00 0.00 0.00 86 1013.4
20260508022958 2 244 0.0 0.0 0.00 0.00 0.00 85 1013.2
20260508022453 3 244 0.0 0.0 0.00 0.00 0.00 84 1013.1
20260508021950 3 243 0.0 0.0 0.00 0.00 0.00 82 1013.2
20260508021446 3 244 0.0 0.0 0.00 0.00 0.00 81 1013.4
20260508020942 3 244 0.0 0.0 0.00 0.00 0.00 80 1013.3
20260508020440 3 244 0.0 0.0 0.00 0.00 0.00 80 1013.1
20260508015937 3 244 0.0 0.0 0.00 0.00 0.00 80 1013.3
20260508015435 3 244 0.0 0.0 0.00 0.00 0.00 79 1013.3
20260508014931 3 244 0.0 0.0 0.00 0.00 0.00 76 1013.2
20260508014428 4 244 0.0 0.0 0.00 0.00 0.00 76 1013.3
20260508013924 4 244 0.0 0.0 0.00 0.00 0.00 75 1013.1
20260508013420 5 244 0.0 0.0 0.00 0.00 0.00 74 1012.8
20260508012918 5 244 0.0 0.0 0.00 0.00 0.00 73 1013.1
20260508012415 5 244 0.0 0.0 0.00 0.00 0.00 71 1012.8
20260508011912 5 244 0.0 0.0 0.00 0.00 0.00 69 1012.8
20260508011410 6 243 0.0 0.0 0.00 0.00 0.00 67 1013.0
20260508010907 6 243 0.0 0.0 0.00 0.00 0.00 67 1012.8
20260508010404 7 245 0.0 0.0 0.00 0.00 0.00 56 1012.8
20260508005901 7 249 0.0 0.0 0.00 0.00 0.00 54 1012.8
20260508005358 8 251 0.0 0.0 0.00 0.00 0.00 51 1012.8
20260508004854 8 256 0.0 0.0 0.00 0.00 0.00 49 1012.4
20260508004350 9 253 0.0 0.0 0.00 0.00 0.00 46 1012.7
20260508003847 9 259 1.6 3.2 0.00 0.00 0.00 45 1012.7
20260508003344 10 293 1.6 6.4 0.00 0.00 0.00 45 1012.6
20260508002841 10 272 1.6 3.2 0.00 0.00 0.00 45 1012.7
20260508002338 10 313 1.6 3.2 0.00 0.00 0.00 44 1012.4
20260508001834 10 276 1.6 4.8 0.00 0.00 0.00 43 1012.5
20260508001330 10 311 6.4 11.3 0.00 0.00 0.00 41 1012.5
20260508000827 10 280 3.2 11.3 0.00 0.00 0.00 41 1012.3
20260508000323 11 286 3.2 11.3 0.00 0.00 0.00 40 1012.1
20260507235820 11 234 3.2 9.7 0.00 0.00 0.00 40 1012.2
20260507235317 11 304 4.8 11.3 0.00 0.00 0.00 41 1012.1
20260507234814 11 263 4.8 11.3 0.00 0.00 0.00 39 1011.9
20260507234311 11 252 3.2 14.5 0.00 0.00 0.00 39 1012.2
20260507233807 11 314 9.7 12.9 0.00 0.00 0.00 40 1012.0
20260507233305 11 281 6.4 14.5 0.00 0.00 0.00 40 1012.1
20260507232803 12 270 4.8 11.3 0.00 0.00 0.00 39 1012.3
20260507232259 12 250 4.8 16.1 0.00 0.00 0.00 41 1011.9
20260507231756 11 214 4.8 9.7 0.00 0.00 0.00 44 1011.9
20260507231253 11 288 8.0 12.9 0.00 0.00 0.00 45 1012.0
20260507230749 11 304 8.0 11.3 0.00 0.00 0.00 44 1011.9
20260507230247 12 293 6.4 17.7 0.00 0.00 0.00 43 1012.1
20260507225746 12 263 3.2 12.9 0.00 0.00 0.00 44 1011.8
20260507225243 12 287 8.0 11.3 0.00 0.00 0.00 43 1012.1
20260507224738 12 293 8.0 16.1 0.00 0.00 0.00 43 1012.1
20260507224235 12 295 4.8 14.5 0.00 0.00 0.00 45 1012.2
20260507223732 12 327 14.5 17.7 0.00 0.00 0.00 48 1012.1
20260507223228 12 291 9.7 11.3 0.00 0.00 0.00 51 1012.1
20260507222725 11 152 11.3 14.5 0.00 0.00 0.00 50 1012.0
20260507222222 11 264 6.4 11.3 0.00 0.00 0.00 51 1012.0
20260507221719 11 307 11.3 20.9 0.00 0.00 0.00 50 1012.0
20260507221215 11 310 11.3 17.7 0.00 0.00 0.00 52 1012.2
20260507220711 11 298 4.8 11.3 0.00 0.00 0.00 50 1012.0
20260507220210 12 283 3.2 11.3 0.00 0.00 0.00 50 1011.9
20260507215705 12 299 4.8 20.9 0.00 0.00 0.00 49 1011.7
20260507215203 12 291 12.9 16.1 0.00 0.00 0.00 47 1011.9
20260507214700 12 300 9.7 17.7 0.00 0.00 0.00 49 1011.6
20260507214156 12 330 4.8 12.9 0.00 0.00 0.00 50 1011.7
20260507213652 12 294 8.0 24.1 0.00 0.00 0.00 50 1011.5
20260507213150 12 348 14.5 20.9 0.00 0.00 0.00 48 1011.3
20260507212646 12 294 6.4 17.7 0.00 0.00 0.00 48 1011.2
20260507212143 12 316 3.2 9.7 0.00 0.00 0.00 47 1011.4
20260507211640 12 292 8.0 12.9 0.00 0.00 0.00 47 1011.2
20260507211135 12 269 9.7 11.3 0.00 0.00 0.00 46 1011.0
20260507210633 12 241 6.4 12.9 0.00 0.00 0.00 46 1011.1
20260507210129 12 329 6.4 11.3 0.00 0.00 0.00 48 1011.0
20260507205626 13 305 6.4 9.7 0.00 0.00 0.00 45 1011.0
20260507205123 13 294 9.7 14.5 0.00 0.00 0.00 45 1010.8
20260507204619 15 290 6.4 12.9 0.00 0.00 0.00 41 1010.7
20260507204117 15 261 4.8 16.1 0.00 0.00 0.00 43 1010.8
20260507203615 15 295 6.4 9.7 0.00 0.00 0.00 41 1010.8
20260507203112 14 220 1.6 9.7 0.00 0.00 0.00 42 1010.9
20260507202607 14 265 4.8 9.7 0.00 0.00 0.00 44 1010.9
20260507202104 13 323 3.2 6.4 0.00 0.00 0.00 44 1010.7
20260507201559 13 284 8.0 12.9 0.00 0.00 0.00 42 1010.9
20260507201056 13 251 4.8 9.7 0.00 0.00 0.00 44 1011.1
20260507200551 15 279 6.4 14.5 0.00 0.00 0.00 42 1011.0
20260507200048 15 268 6.4 12.9 0.00 0.00 0.00 42 1011.1
20260507195545 15 275 6.4 11.3 0.00 0.00 0.00 46 1011.1
20260507195042 13 287 11.3 12.9 0.00 0.00 0.00 45 1011.2
20260507194538 13 291 9.7 22.5 0.00 0.00 0.00 43 1011.4
20260507194035 13 336 9.7 14.5 0.00 0.00 0.00 48 1011.5
20260507193532 13 296 4.8 6.4 0.00 0.00 0.00 47 1011.2
20260507193029 13 331 6.4 11.3 0.00 0.00 0.00 46 1011.2
20260507192525 13 307 4.8 12.9 0.00 0.00 0.00 48 1011.1
20260507192022 13 315 9.7 12.9 0.00 0.00 0.00 46 1011.1
20260507191517 13 243 3.2 6.4 0.00 0.00 0.00 47 1011.3
20260507191014 13 328 11.3 14.5 0.00 0.00 0.00 47 1011.3
20260507190512 13 270 4.8 11.3 0.00 0.00 0.00 47 1011.4
20260507190011 13 328 6.4 16.1 0.00 0.00 0.00 50 1011.4
20260507185508 13 232 8.0 11.3 0.00 0.00 0.00 44 1010.9
20260507185004 13 244 3.2 9.7 0.00 0.00 0.00 45 1011.1
20260507184503 13 300 4.8 9.7 0.00 0.00 0.00 46 1011.2
20260507184001 13 311 8.0 11.3 0.00 0.00 0.00 45 1011.4
20260507183456 14 320 8.0 9.7 0.00 0.00 0.00 43 1011.2
20260507182954 14 291 3.2 11.3 0.00 0.00 0.00 39 1011.2
20260507182449 14 324 12.9 16.1 0.00 0.00 0.00 42 1011.1
20260507181945 14 337 9.7 12.9 0.00 0.00 0.00 42 1011.2
20260507181442 15 212 3.2 9.7 0.00 0.00 0.00 39 1011.3
20260507180939 15 212 0.0 11.3 0.00 0.00 0.00 38 1011.2
20260507180436 16 251 1.6 12.9 0.00 0.00 0.00 39 1010.9
20260507175932 16 263 4.8 12.9 0.00 0.00 0.00 37 1011.1
20260507175428 15 290 6.4 14.5 0.00 0.00 0.00 37 1011.2
20260507174926 15 264 4.8 11.3 0.00 0.00 0.00 38 1011.1
20260507174423 14 294 4.8 9.7 0.00 0.00 0.00 39 1011.4
20260507173921 15 219 4.8 11.3 0.00 0.00 0.00 38 1011.2
20260507173418 15 288 4.8 14.5 0.00 0.00 0.00 38 1011.3
20260507172914 15 204 4.8 6.4 0.00 0.00 0.00 38 1011.3
20260507172411 15 248 6.4 12.9 0.00 0.00 0.00 37 1011.3
20260507171907 15 226 9.7 17.7 0.00 0.00 0.00 37 1011.4
20260507171403 16 192 8.0 14.5 0.00 0.00 0.00 38 1011.6
20260507170901 16 249 4.8 12.9 0.00 0.00 0.00 39 1011.7
20260507170357 15 304 3.2 9.7 0.00 0.00 0.00 46 1011.5
20260507165853 14 276 3.2 12.9 0.00 0.00 0.00 46 1011.6
20260507165349 13 274 1.6 9.7 0.00 0.00 0.00 42 1011.5
20260507164845 13 250 8.0 11.3 0.00 0.00 0.00 38 1011.6
20260507164343 13 244 1.6 4.8 0.00 0.00 0.00 41 1011.8
20260507163840 13 239 3.2 6.4 0.00 0.00 0.00 40 1011.8
20260507163337 13 276 3.2 6.4 0.00 0.00 0.00 45 1011.7
20260507162834 13 232 8.0 11.3 0.00 0.00 0.00 41 1011.8
20260507162329 13 298 6.4 12.9 0.00 0.00 0.00 41 1011.7
20260507161826 15 309 3.2 11.3 0.00 0.00 0.00 39 1011.7
20260507161323 15 199 6.4 9.7 0.00 0.00 0.00 40 1011.9
20260507160820 13 251 3.2 6.4 0.00 0.00 0.00 42 1011.7
20260507160315 13 306 3.2 12.9 0.00 0.00 0.00 42 1011.9
20260507155812 13 269 3.2 12.9 0.00 0.00 0.00 46 1011.9
20260507155308 15 220 4.8 6.4 0.00 0.00 0.00 44 1012.2
20260507154804 14 264 3.2 4.8 0.00 0.00 0.00 41 1012.1
20260507154302 14 316 4.8 9.7 0.00 0.00 0.00 42 1012.1
20260507153758 13 251 3.2 6.4 0.00 0.00 0.00 45 1012.3
20260507153255 15 302 6.4 9.7 0.00 0.00 0.00 42 1012.2
20260507152751 14 252 4.8 6.4 0.00 0.00 0.00 46 1012.0
20260507152248 14 255 12.9 17.7 0.00 0.00 0.00 43 1012.1
20260507151743 14 249 0.0 4.8 0.00 0.00 0.00 50 1011.9
20260507151240 13 249 3.2 4.8 0.00 0.00 0.00 48 1012.2
20260507150737 12 288 6.4 11.3 0.00 0.00 0.00 50 1012.2
20260507150234 12 264 1.6 4.8 0.00 0.00 0.00 48 1012.1
20260507145730 12 241 6.4 12.9 0.00 0.00 0.00 46 1012.5
20260507145226 12 290 3.2 9.7 0.00 0.00 0.00 46 1012.4
20260507144724 13 306 4.8 9.7 0.00 0.00 0.00 48 1012.3
20260507144221 13 259 8.0 11.3 0.00 0.00 0.00 47 1012.4
20260507143718 13 265 3.2 6.4 0.00 0.00 0.00 47 1012.4
20260507143215 13 278 1.6 3.2 0.00 0.00 0.00 46 1012.2
20260507142711 13 269 6.4 11.3 0.00 0.00 0.00 41 1012.3
20260507142208 14 222 3.2 9.7 0.00 0.00 0.00 46 1012.3
20260507141703 13 262 4.8 6.4 0.00 0.00 0.00 48 1012.4
20260507141201 13 239 3.2 6.4 0.00 0.00 0.00 49 1012.3
20260507140657 13 242 1.6 6.4 0.00 0.00 0.00 50 1012.4
20260507140155 13 275 4.8 9.7 0.00 0.00 0.00 51 1012.6
20260507135652 13 333 3.2 4.8 0.00 0.00 0.00 53 1012.6
20260507135149 13 275 4.8 4.8 0.00 0.00 0.00 56 1013.0
20260507134645 12 214 0.0 4.8 0.00 0.00 0.00 53 1012.8
20260507134141 13 238 3.2 4.8 0.00 0.00 0.00 52 1012.8
20260507133637 12 200 3.2 4.8 0.00 0.00 0.00 54 1013.0
20260507133135 12 250 1.6 3.2 0.00 0.00 0.00 56 1012.8
20260507132632 12 277 3.2 3.2 0.00 0.00 0.00 57 1013.2
20260507132128 11 265 3.2 4.8 0.00 0.00 0.00 58 1013.0
20260507131625 11 205 1.6 4.8 0.00 0.00 0.00 61 1013.2
20260507131123 11 213 1.6 3.2 0.00 0.00 0.00 63 1013.0
20260507130619 10 235 1.6 3.2 0.00 0.00 0.00 65 1013.2
20260507130117 10 242 1.6 4.8 0.00 0.00 0.00 64 1013.1
20260507125616 11 329 1.6 3.2 0.00 0.00 0.00 66 1013.2
20260507125113 10 192 1.6 4.8 0.00 0.00 0.00 67 1013.2
20260507124609 10 274 3.2 4.8 0.00 0.00 0.00 70 1013.2
20260507124107 9 229 1.6 4.8 0.00 0.00 0.00 73 1013.3
20260507123605 9 244 1.6 4.8 0.00 0.00 0.00 76 1013.2
20260507123101 8 237 3.2 6.4 0.00 0.00 0.00 79 1012.8
20260507122556 8 239 3.2 3.2 0.00 0.00 0.00 88 1013.1
20260507122053 8 72 0.0 1.6 0.00 0.00 0.00 96 1013.2
20260507121548 7 225 0.0 0.0 0.00 0.00 0.00 99 1013.4
20260507121045 6 240 0.0 0.0 0.00 0.00 0.00 99 1013.2
20260507120541 5 242 0.0 0.0 0.00 0.00 0.00 98 1013.3
20260507120038 5 251 0.0 0.0 0.00 0.00 0.00 98 1013.4
20260507115534 5 254 0.0 0.0 0.00 0.00 0.00 98 1013.5
20260507115030 5 249 0.0 0.0 0.00 0.00 0.00 99 1013.4
20260507114526 4 249 0.0 0.0 0.00 0.00 0.00 98 1013.5
20260507114024 4 250 0.0 0.0 0.00 0.00 0.00 99 1013.3
20260507113521 4 249 0.0 0.0 0.00 0.00 0.00 99 1013.6
20260507113018 3 249 0.0 0.0 0.00 0.00 0.00 99 1013.3
20260507112516 3 250 0.0 0.0 0.00 0.00 0.00 98 1013.3
20260507112012 3 250 0.0 0.0 0.00 0.00 0.00 98 1013.1
20260507111510 3 250 0.0 0.0 0.00 0.00 0.00 98 1013.3
20260507111005 3 250 0.0 0.0 0.00 0.00 0.00 99 1013.1
20260507110502 3 253 0.0 0.0 0.00 0.00 0.00 99 1013.1
20260507105958 3 249 0.0 0.0 0.00 0.00 0.00 99 1013.0
20260507105455 2 247 0.0 0.0 0.00 0.00 0.00 99 1012.8
20260507104952 2 247 0.0 0.0 0.00 0.00 0.00 98 1013.0
20260507104449 2 248 0.0 0.0 0.00 0.00 0.00 98 1012.6
20260507103944 2 248 0.0 0.0 0.00 0.00 0.00 98 1012.7
20260507103442 2 248 0.0 0.0 0.00 0.00 0.00 98 1012.6
20260507102937 2 248 0.0 0.0 0.00 0.00 0.00 98 1012.6
20260507102435 2 249 0.0 0.0 0.00 0.00 0.00 98 1012.8
20260507101931 2 249 0.0 0.0 0.00 0.00 0.00 98 1012.8
20260507101426 2 249 0.0 0.0 0.00 0.00 0.00 98 1012.6
20260507100923 2 249 0.0 0.0 0.00 0.00 0.00 98 1012.6
20260507100420 2 249 0.0 0.0 0.00 0.00 0.00 98 1012.6
20260507095919 2 249 0.0 0.0 0.00 0.00 0.00 98 1012.2
20260507095415 2 249 0.0 0.0 0.00 0.00 0.00 98 1012.5
20260507094913 2 249 0.0 0.0 0.00 0.00 0.00 98 1012.4
20260507094408 2 249 0.0 0.0 0.00 0.00 0.00 98 1012.6
20260507093906 2 249 0.0 0.0 0.00 0.00 0.00 98 1012.7
20260507093404 2 250 0.0 0.0 0.00 0.00 0.00 98 1012.8
20260507092902 2 242 0.0 0.0 0.00 0.00 0.00 98 1013.0
20260507092358 2 242 0.0 0.0 0.00 0.00 0.00 98 1012.6
20260507091854 2 245 0.0 0.0 0.00 0.00 0.00 98 1013.0
20260507091351 2 245 0.0 0.0 0.00 0.00 0.00 98 1013.0
20260507090846 2 249 0.0 0.0 0.00 0.00 0.00 98 1012.8
20260507090343 2 250 0.0 0.0 0.00 0.00 0.00 98 1012.6
20260507085840 1 241 0.0 0.0 0.00 0.00 0.00 98 1012.6
20260507085337 2 238 0.0 0.0 0.00 0.00 0.00 98 1012.8
20260507084834 1 238 0.0 0.0 0.00 0.00 0.00 98 1012.6
20260507084330 1 246 0.0 0.0 0.00 0.00 0.00 98 1013.0
20260507083828 1 246 0.0 0.0 0.00 0.00 0.00 97 1013.0
20260507083324 1 246 0.0 0.0 0.00 0.00 0.00 98 1012.8
20260507082820 1 246 0.0 0.0 0.00 0.00 0.00 97 1013.2
20260507082316 1 246 0.0 0.0 0.00 0.00 0.00 97 1013.0
20260507081814 1 246 0.0 0.0 0.00 0.00 0.00 97 1013.0
20260507081309 1 246 0.0 0.0 0.00 0.00 0.00 97 1013.2
20260507080806 1 246 0.0 0.0 0.00 0.00 0.00 97 1013.2
20260507080303 2 246 0.0 0.0 0.00 0.00 0.00 97 1013.1
20260507075758 2 247 0.0 0.0 0.00 0.00 0.00 97 1013.2
20260507075254 1 247 0.0 0.0 0.00 0.00 0.00 97 1012.8
20260507074751 1 245 0.0 0.0 0.00 0.00 0.00 97 1013.2
20260507074249 1 245 0.0 0.0 0.00 0.00 0.00 96 1013.2
20260507073745 2 245 0.0 0.0 0.00 0.00 0.00 96 1013.0
20260507073242 2 245 0.0 0.0 0.00 0.00 0.00 96 1013.2
20260507072740 2 245 0.0 0.0 0.00 0.00 0.00 96 1013.0
20260507072237 2 246 0.0 0.0 0.00 0.00 0.00 96 1013.3
20260507071734 1 246 0.0 0.0 0.00 0.00 0.00 96 1012.8
20260507071230 2 247 0.0 0.0 0.00 0.00 0.00 96 1013.1
20260507070728 2 249 0.0 0.0 0.00 0.00 0.00 96 1013.3
20260507070224 2 249 0.0 0.0 0.00 0.00 0.00 95 1013.2
20260507065721 2 249 0.0 0.0 0.00 0.00 0.00 95 1013.3
20260507065218 2 249 0.0 0.0 0.00 0.00 0.00 95 1013.3
20260507064715 2 250 0.0 0.0 0.00 0.00 0.00 95 1013.3
20260507064215 2 250 0.0 0.0 0.00 0.00 0.00 95 1013.4
20260507063711 2 250 0.0 0.0 0.00 0.00 0.00 95 1013.4
20260507063207 2 245 0.0 0.0 0.00 0.00 0.00 94 1013.3
20260507062705 2 245 0.0 0.0 0.00 0.00 0.00 94 1013.4
20260507062202 2 242 0.0 0.0 0.00 0.00 0.00 93 1013.5
20260507061700 2 242 0.0 0.0 0.00 0.00 0.00 93 1013.5
20260507061158 3 242 0.0 0.0 0.00 0.00 0.00 93 1013.5
20260507060656 3 242 0.0 0.0 0.00 0.00 0.00 92 1013.6
20260507060152 3 242 0.0 0.0 0.00 0.00 0.00 92 1013.7
20260507055648 3 242 0.0 0.0 0.00 0.00 0.00 91 1013.8
20260507055144 3 242 0.0 0.0 0.00 0.00 0.00 91 1013.9
20260507054640 4 242 0.0 0.0 0.00 0.00 0.00 91 1013.8
20260507054137 4 242 0.0 0.0 0.00 0.00 0.00 91 1013.8
20260507053635 4 246 0.0 0.0 0.00 0.00 0.00 90 1013.9
20260507053132 5 246 0.0 0.0 0.00 0.00 0.00 90 1014.0
20260507052631 5 244 0.0 0.0 0.00 0.00 0.00 90 1013.8
20260507052126 5 249 0.0 0.0 0.00 0.00 0.00 89 1013.8
20260507051624 5 249 0.0 0.0 0.00 0.00 0.00 89 1014.0
20260507051121 5 245 0.0 0.0 0.00 0.00 0.00 88 1014.0
20260507050618 5 245 0.0 0.0 0.00 0.00 0.00 87 1013.9
20260507050115 5 251 0.0 0.0 0.00 0.00 0.00 87 1013.9
20260507045612 5 251 0.0 0.0 0.00 0.00 0.00 86 1013.8
20260507045108 5 253 0.0 0.0 0.00 0.00 0.00 86 1014.2
20260507044605 5 246 0.0 0.0 0.00 0.00 0.00 84 1014.2
20260507044102 5 246 0.0 0.0 0.00 0.00 0.00 82 1014.2
20260507043557 5 246 0.0 0.0 0.00 0.00 0.00 82 1014.1
20260507043055 5 250 0.0 0.0 0.00 0.00 0.00 83 1014.1
20260507042551 5 252 0.0 0.0 0.00 0.00 0.00 82 1014.1
20260507042046 5 238 0.0 0.0 0.00 0.00 0.00 82 1014.3
20260507041544 5 247 0.0 0.0 0.00 0.00 0.00 81 1014.4
20260507041041 5 245 0.0 0.0 0.00 0.00 0.00 80 1014.7
20260507040537 5 243 0.0 0.0 0.00 0.00 0.00 80 1014.5
20260507040033 5 248 0.0 0.0 0.00 0.00 0.00 79 1014.7